Location: Chez Sauty
(45.7674°N, 2.3838°E)
Time: 10:58:26
(UTC+00:00)

Daily predictions for brighter satellites

Satellite Brightness Start Highest point End
(mag) Time Altitude Azimuth Time Altitude Azimuth Time Altitude Azimuth
COSMOS 2406 3.3 16:34:22 10° SSW 16:40:07 90° NW 16:45:53 10° NNE
Cosmos 468 Rocket 4.5 16:36:16 10° SSW 16:41:22 62° WNW 16:46:34 10° NNE
Meteor 1-31 Rocket 4.5 16:40:55 10° SSW 16:44:27 37° W 16:48:03 10° NNW
Cosmos 1428 Rocket 4.5 16:42:10 10° N 16:48:18 70° E 16:54:28 10° SSE
NOSS 2-2 (C) 4.5 16:44:52 10° NW 16:50:09 89° ENE 16:57:38 10° SE
Cosmos 1092 Rocket 4.1 16:47:04 10° N 16:53:27 86° E 16:59:47 10° S
CZ-4B R/B 4.0 16:49:12 10° ESE 16:53:34 26° ENE 16:57:54 10° N
CZ-2D R/B 4.1 16:52:22 10° SE 16:55:39 28° ENE 16:58:57 10° N
Meteor 2-21 4.4 16:50:57 10° N 16:57:02 71° E 17:03:03 10° SSE
ATLAS CENTAUR R/B 3.3 16:46:39 10° SW 16:57:18 70° NW 17:01:31 10° NE
USA 267 3.4 16:50:49 10° NE 16:57:19 66° SE 17:03:48 10° SW
Cosmos 1939 Rocket 2.9 16:54:10 10° SSE 16:58:13 66° ENE 17:02:16 10° N
USA 306 3.8 16:56:41 10° NW 17:00:33 32° NNE 17:03:51 13° ENE
Cosmos 1151 Rocket 3.4 16:56:45 10° SSE 17:00:49 41° E 17:04:56 10° NNE
Cosmos 1633 Rocket 3.5 16:57:57 10° N 17:02:05 39° ENE 17:06:13 10° SE
COSMO-SKYMED 1 4.0 16:59:12 10° NE 17:02:20 19° E 17:05:27 10° SE
Cosmos 1782 2.7 16:58:53 10° S 17:02:52 83° E 17:06:52 10° N
Cosmos 1666 3.0 17:00:19 10° N 17:03:51 41° ENE 17:07:23 10° SSE
Cosmos 2360 Rocket 3.6 17:01:37 10° N 17:05:27 18° NE 17:08:17 13° ENE
ISS -2.4 17:03:01 10° WNW 17:06:15 41° SW 17:09:27 10° SE
Cosmos 1900 4.5 17:02:43 10° SSW 17:07:28 55° ESE 17:11:53 12° NE
PAYLOAD B 4.5 17:02:57 10° SE 17:08:19 48° ENE 17:13:40 10° N
SeaSat 1 4.4 17:05:14 10° N 17:09:02 23° NW 17:12:49 10° W
SL-08 R/B 4.1 17:05:23 10° N 17:09:55 50° WNW 17:14:23 10° SW
Cosmos 1818 3.6 17:06:09 10° NNW 17:11:35 59° NE 17:16:58 10° SE
CZ-2C R/B 3.6 17:12:37 10° SSW 17:15:25 17° S 17:18:10 10° SE
Cosmos 2279 Rocket 4.0 17:10:44 10° S 17:16:49 62° E 17:22:55 10° NNE
Cosmos 2142 Rocket 4.5 17:11:40 10° S 17:17:44 66° E 17:23:56 10° NNE
ATLAS 5 CENTAUR R/B 3.0 17:10:44 10° NW 17:17:46 33° NNE 17:19:39 19° ENE
Cosmos 841 Rocket 3.9 17:12:51 10° SSW 17:17:57 64° WNW 17:23:05 10° NNE
Cosmos 2266 Rocket 4.5 17:15:12 10° N 17:21:10 39° ENE 17:27:06 10° SE
USA 307 3.6 17:17:15 10° NW 17:21:13 36° NNE 17:23:33 20° ENE
CZ-4C R/B 3.1 17:15:20 10° NW 17:22:39 86° SW 17:31:10 10° SSE
Lacrosse 5 rocket 1.2 17:20:45 10° NW 17:24:40 71° NE 17:28:48 10° ESE
Cosmos 2208 Rocket 4.1 17:21:59 10° S 17:27:21 69° ESE 17:32:47 10° NNE
ATLAS 2AS CENTAUR R/B 4.4 17:22:18 10° NW 17:27:33 20° N 17:31:18 14° NE
Cosmos 2322 Rocket 2.7 17:23:28 10° NNW 17:28:43 36° NE 17:33:56 10° ESE
Cosmos 1933 Rocket 4.3 17:25:22 10° NNE 17:29:09 28° ENE 17:32:53 10° SE
AQUARIUS 4.3 17:25:04 10° S 17:29:33 77° WSW 17:34:04 10° NNW
Cosmos 2150 Rocket 4.1 17:25:41 10° NNW 17:30:44 50° ENE 17:35:50 10° SE
Cosmos 1328 Rocket 3.6 17:26:28 10° S 17:30:50 62° E 17:35:14 10° NNE
USA 234 3.2 17:24:21 10° ESE 17:30:52 72° NNE 17:37:23 10° NW
Cosmos 1666 Rocket 3.6 17:27:15 10° N 17:31:42 84° W 17:36:05 10° S
Cosmos 1980 Rocket 3.1 17:26:30 10° NW 17:32:00 53° WSW 17:37:25 10° S
CORIOLIS 4.4 17:29:39 10° S 17:35:02 72° WSW 17:40:30 10° NNW
Cosmos 1470 Rocket 3.7 17:30:56 10° N 17:35:19 51° ENE 17:39:41 10° SSE
Cosmos 1544 3.5 17:32:00 10° N 17:35:23 36° ENE 17:38:45 10° SE
Cosmos 1867 4.4 17:31:37 10° S 17:36:22 31° ESE 17:38:27 24° ENE
Cosmos 1812 3.0 17:32:52 10° SSW 17:36:42 67° W 17:40:32 10° N
Cosmos 1125 Rocket 3.6 17:31:50 10° NNW 17:36:59 52° ENE 17:42:07 10° SE
X-37B 1.7 17:34:38 10° SW 17:37:11 28° SSE 17:37:49 25° SE
PSLV R/B 3.7 17:33:58 10° SSE 17:37:39 85° WSW 17:41:27 10° NNW
H-2A R/B 1.9 17:33:17 10° SSE 17:38:24 77° ENE 17:43:25 10° N
DEBRIS 4.4 17:36:23 10° S 17:38:27 19° ESE 17:38:35 19° ESE
Okean O Rocket 1.9 17:36:02 10° SE 17:40:15 44° ENE 17:44:30 10° N
Meteor 2-8 Rocket 4.4 17:34:38 10° S 17:40:45 71° E 17:46:53 10° NNE
Meteor 1-10 Rocket 4.3 17:35:18 10° S 17:40:53 55° E 17:46:23 10° NNE
Meteor 1-11 Rocket 3.9 17:36:57 10° N 17:42:25 48° ENE 17:47:58 10° SSE
USA 308 3.3 17:39:57 10° NW 17:44:02 44° NNE 17:45:21 33° ENE
SL-16 R/B 2.1 17:43:50 10° NNW 17:49:29 64° ENE 17:55:06 10° SE
ARGOS 3.1 17:45:00 10° SSE 17:50:18 61° ENE 17:55:37 10° N
SKYMED 2 3.6 17:47:47 20° NNE 17:50:42 58° E 17:54:59 10° S
Cosmos 2082 Rocket 3.2 17:45:52 10° SW 17:51:17 44° WNW 17:56:42 10° NNE
deb Chang Zheng 4 3.4 17:51:30 10° SSE 17:55:47 73° ENE 18:00:05 10° N
COSMOS 2455 4.1 17:54:14 10° WSW 17:59:47 37° NW 18:04:53 12° NNE
Feng Yun 1-1 Rocket 4.4 17:59:28 10° SE 18:05:12 55° ENE 18:10:53 10° N
USA 305 2.8 18:04:14 10° NW 18:08:27 63° NNE 18:08:52 59° ENE
Cosmos 2333 Rocket 3.4 18:04:18 10° N 18:08:04 25° NNE 18:08:04 25° NNE
Cosmos 1356 Rocket 3.3 18:05:46 10° N 18:10:01 80° E 18:14:17 10° SSE
CZ-2C R/B 2.5 18:06:50 11° NNE 18:11:52 88° WNW 18:17:02 10° SSW
Cosmos 2219 Rocket 3.7 18:12:21 10° N 18:15:04 21° NNE 18:15:04 21° NNE
Aureole 3 Rocket 3.5 18:12:43 10° S 18:17:11 66° E 18:23:34 10° NNE
Cosmos 44 Rocket 4.5 18:12:54 10° NW 18:17:30 42° WSW 18:21:57 10° S
Cosmos 1655 Rocket 4.1 18:11:33 10° N 18:17:58 81° W 18:24:18 10° S
Cosmos 1515 Rocket 3.6 18:13:32 10° SSW 18:17:59 78° W 18:20:27 26° N
Cosmos 921 Rocket 3.8 18:16:30 10° SW 18:20:35 49° WNW 18:22:47 25° N
Spot 2 4.4 18:23:28 44° SE 18:24:55 63° ENE 18:29:57 10° N
CZ-4B R/B 4.0 18:28:38 10° S 18:33:50 49° W 18:39:01 10° NNW
COSMO-SKYMED 1 3.6 18:36:23 23° N 18:38:43 44° WNW 18:42:50 10° SW
USA 267 3.8 18:37:47 35° NNE 18:40:14 51° NNW 18:46:30 10° W
USA 306 3.4 18:36:31 10° WNW 18:39:52 55° WNW 18:39:52 55° WNW
Landsat 5 3.9 18:41:36 56° W 18:41:36 56° W 18:45:13 10° SSW
Meteor 1-27 Rocket 3.8 18:38:25 10° SSW 18:43:55 74° WNW 18:46:30 33° N
Cosmos 2360 Rocket 2.1 18:44:37 10° NNW 18:50:08 83° N 18:50:08 83° N
Cosmos 2237 4.4 18:48:04 10° NNW 18:53:45 68° WSW 18:55:53 39° S
CZ-2C R/B 3.6 18:51:17 10° SW 18:53:23 17° SSW 18:53:23 17° SSW
USA 307 4.4 18:57:07 10° WNW 18:59:35 33° WNW 18:59:35 33° WNW
Lacrosse 5 rocket 3.8 19:00:36 10° W 19:03:25 18° SW 19:04:38 16° SSW
Cosmos 2322 Rocket 3.4 19:07:31 10° NW 19:12:49 40° WSW 19:17:09 15° S
USA 234 4.3 19:10:00 19° S 19:14:09 39° SW 19:20:13 10° WNW
Okean O Rocket 4.1 19:13:28 10° SW 19:16:47 20° W 19:20:08 10° NW
NOSS 3-4 (A) 4.2 19:11:08 10° NW 19:16:20 49° N 19:16:20 49° N
NOSS 3-4 (C) 4.2 19:11:15 10° NW 19:16:24 49° N 19:16:24 49° N
Cosmos 1867 4.4 19:14:29 10° WSW 19:19:10 46° WNW 19:19:10 46° WNW
ATLAS 2AS CENTAUR R/B 4.0 19:14:15 10° NNW 19:18:45 29° N 19:18:45 29° N
NOSS 3-3 (A) 4.4 19:21:13 10° SW 19:25:51 55° W 19:25:51 55° W
NOSS 3-3 (C) 4.4 19:21:19 10° SW 19:25:55 55° W 19:25:55 55° W
SL-16 R/B 4.5 19:28:56 10° NW 19:33:04 21° W 19:37:10 10° SSW
Cosmos 2333 Rocket 4.2 19:48:11 10° NNW 19:50:07 22° NW 19:50:07 22° NW
